Flag for Spain Weather past 2 weeks in Sevilla, Spain

63 °F

Partly sunny.

Feels Like: 63 °F
Forecast: 66 / 74 °F
Wind: 1 mph from North

Location: Sevilla / San Pablo

Current Time: Oct 10, 2015 at 11:52:30 AM

Latest Report: Oct 10, 2015 at 11:00 AM

Visibility: 6 mi

Pressure: 29.89 "Hg

Humidity: 83%

Dew point: 57 °F

Location of SevillaLocation

Historic Weather in Sevilla — Graph


Sevilla temperature yesterday

Maximum temperature yesterday: 77 °F (at 4:30 PM)
Minimum temperature yesterday: 57 °F (at 6:00 AM)
Average temperature yesterday: 66 °F

Past Weeks' High & Low Weather Summary

High91 °F (Sep 27, 3:30 PM)100% (Oct 5, 12:30 PM)30.18 "Hg (Oct 5, 12:30 PM)
Low57 °F (Sep 30, 8:30 AM)12% (Sep 27, 5:30 PM)29.86 "Hg (Oct 9, 5:30 PM)
Average72 °F59%30.02 "Hg
* Reported Sep 25 10:00 AM — Oct 10 10:30 AM, Sevilla, Weather by CustomWeather, © 2015

Note: Actual official high and low records may vary slightly from our data, if they occured in-between our weather recording intervals... More about our weather records


Sevilla weather history for previous 24 hours

Time TempWeatherWind HumidityBarometerVisibility
10:30 AM
Sat, Oct 10
63 °FPartly sunny.No wind83%29.89 "Hg5 mi
10:00 AM63 °FOvercast.2 mph83%29.86 "Hg4 mi
9:30 AM61 °FOvercast.2 mph88%29.86 "Hg4 mi
9:00 AM61 °FPassing clouds.2 mph88%29.86 "Hg4 mi
8:30 AM59 °FPassing clouds.3 mph94%29.86 "Hg4 mi
8:00 AM59 °FPassing clouds.3 mph88%29.86 "Hg4 mi
7:30 AM59 °FPassing clouds.1 mph88%29.86 "Hg4 mi
7:00 AM59 °FPassing clouds.No wind88%29.86 "Hg4 mi
6:30 AM59 °FClear.No wind88%29.86 "Hg4 mi
5:30 AM59 °FClear.3 mph88%29.86 "Hg10 mi
5:00 AM59 °FClear.3 mph88%29.86 "Hg10 mi
4:30 AM59 °FClear.3 mph94%29.86 "Hg5 mi
4:00 AM59 °FClear.1 mph94%29.89 "Hg4 mi
3:30 AM59 °FClear.1 mph94%29.89 "Hg4 mi
2:00 AM61 °FClear.2 mph88%29.92 "Hg10 mi
1:30 AM63 °FClear.1 mph83%29.92 "Hg10 mi
1:00 AM63 °FClear.No wind77%29.92 "Hg10 mi
12:30 AM64 °FClear.1 mph78%29.92 "Hg10 mi
12:00 AM64 °FClear.1 mph73%29.92 "Hg10 mi
11:00 PM
Fri, Oct 9
66 °FPassing clouds.3 mph68%29.92 "HgN/A
10:30 PM66 °FPassing clouds.5 mph68%29.89 "HgN/A
10:00 PM68 °FPassing clouds.3 mph64%29.89 "HgN/A
9:30 PM68 °FClear.5 mph64%29.89 "Hg10 mi
9:00 PM70 °FClear.8 mph60%29.89 "Hg10 mi
8:30 PM70 °FSunny.9 mph60%29.86 "Hg10 mi
8:00 PM72 °FSunny.3 mph53%29.86 "Hg10 mi
7:30 PM73 °FPassing clouds.7 mph47%29.86 "HgN/A
7:00 PM75 °FSunny.2 mph44%29.86 "Hg10 mi
6:30 PM75 °FPassing clouds.3 mph41%29.86 "HgN/A
6:00 PM77 °FPassing clouds.3 mph42%29.89 "HgN/A
5:30 PM77 °FSunny.2 mph39%29.86 "Hg10 mi
4:30 PM77 °FSunny.2 mph39%29.89 "Hg10 mi
4:00 PM75 °FSunny.1 mph44%29.89 "Hg10 mi
3:30 PM75 °FPassing clouds.3 mph44%29.89 "HgN/A
3:00 PM75 °FSunny.1 mph47%29.92 "Hg10 mi
2:30 PM73 °FSunny.2 mph50%29.92 "Hg10 mi
2:00 PM72 °FSunny.No wind53%29.95 "Hg10 mi
1:30 PM70 °FSunny.1 mph53%29.95 "Hg10 mi
1:00 PM72 °FSunny.No wind57%29.95 "Hg10 mi
12:30 PM70 °FSunny.1 mph64%29.98 "Hg10 mi
12:00 PM70 °FSunny.No wind60%29.98 "Hg10 mi
11:30 AM64 °FSunny.1 mph73%29.98 "Hg10 mi
11:00 AM64 °FSunny.No wind73%29.98 "Hg10 mi
Weather by CustomWeather, © 2015

See weather overviewHow to use our weather pages